Weather in Maraksa Pervaya

Russia / Tomsk District     58°23′06″N   83°04′40″E
temp.,
°C
wind,
m/s
gust,
m/s
humid.,
%
clouds,
%
prec.,
mm/h
press.,
hPa
HPBL,
m
4 july, mon
mon401:00+10wnw249795 0.0 100572
04:00+9w229798 0.0 100528
07:00+11w2389100 0.0 1006152
10:00+17nnw126296 0.0 1006787
13:00+19nne1155100 0.0 10061311
16:00+21ene115016 0.0 10061384
19:00+20ene125588 0.0 10061275
22:00+15ene2682100 0.1 1005114
5 july, tue
tue501:00+12ene3786100 0.1 1006123
04:00+11e3993100 0.0 1005179
07:00+14e388116 0.0 1004234
10:00+19e46585 0.0 1004818
13:00+23e5647100 0.0 10031909
16:00+20ene3860100 0.0 1002426
19:00+19ne31068100 0.0 1002478
22:00+18ne4126799 0.0 1002461
6 july, wed
wed601:00+16ne4127599 0.0 1002394
04:00+15ne41376100 0.1 1002418
07:00+15ne4147628 0.3 1002500
10:00+17ne41265100 0.0 1002597
13:00+23ne6845100 0.1 10031348
16:00+24ne574168 0.0 10041887
19:00+22nne5850100 0.0 1005862
22:00+17n31168100 0.0 1006263
7 july, thu
thu701:00+15n31069100 0.0 1007232
04:00+13nne31068100 0.0 1008257
07:00+14nne3106862 0.0 1009328
10:00+20nne594244 0.0 10101311
13:00+22nne57379 0.0 10102147
16:00+24nne47358 0.0 10102593
19:00+20nnw51052100 0.0 1010632
22:00+19n41157100 0.0 1011493
8 july, fri
fri801:00+17n3966100 0.0 1011303
04:00+15n277431 0.0 1011205
07:00+16n287621 0.0 1012283
10:00+22nne35501 0.0 1012832
13:00+25nne453816 0.0 10112468
16:00+26ne35345 0.0 10102624
19:00+25nne354391 0.0 10101747
22:00+18ne1166100 0.0 101111